SCOUT A-1 DEB, 15764

Orbit data source: Space-Track

SCOUT A-1 DEB, 15764 is space debris in LEO originally from a launch on Tue, 30 Oct 1973 UTC launched from the Air Force Western Test Range (AFWTR). Debris objects in space refer to the collection of defunct objects orbiting the Earth. Examples of debris include non-operational satellites, rocket bodies, and fragments generated from explosions, collisions, or faulty payload assembly.

Loading next visibility...
Identifier
15764, 1973-081C
Orbit
LEO
Country
Flag of USUS
Related business
Manufacturer
Unknown
Mission
Spacecraft
Bus & Motor
Unknown
Mass
Unknown
Launch date (UTC)
1973-10-30 (53 years ago)
Launch vehicle
Unknown
Launch site
Air Force Western Test Range (AFWTR)
Object type
Payload
Rocket body
Debris
Shape & HBR
Unknown shape, 0.1 m
Radar Cross Section
Medium (>0.1 m² and <1 m²)

Expand to show TLE details & history
Last TLE update: 2 days ago

TLE from 2 days ago
0 SCOUT A-1 DEB
1 15764U 73081C   26171.26160663  .00000168  00000-0  17313-3 0  9992
2 15764  90.4850 277.8845 0182849 167.0721 223.0299 13.65539770136887
Epoch: 2026-06-20T06:16Z
TLE epoch observation values (Epoch: 2026-06-20T06:16:42.812Z)
Latitude
28.7362°
Longitude
-85.03723°
Altitude
1,119.233 km
Speed
7.246 km/s
True Right ascension
18h 30m 28s
True Declination
28° 35' 54"
Sunlit
Object was in full shadow at epoch
Visualization orbit readout
Latitude
Unknown
Longitude
Unknown
Altitude
Unknown
Speed
Unknown
Apparent Right ascension
Unknown
Apparent Declination
Unknown
Sunlit
N/A
Visualization observer readout
Local Sidereal Time
23:08:33
Azimuth
Unknown
Elevation
Unknown
Doppler factor
Unknown
Orbital elements
Apogee altitude
1,147.794 km
Perigee altitude
877.514 km
Semi-major axis
7,390.791 km
Eccentricity
0.01828
Inclination
90.485°
RAAN
277.8845°
Arg. of periapsis
167.0721°
True anomaly
221.62376°
Mean anomaly
223.0299°
Eccentric anomaly
222.32449°
Mean motion
3.41591 °/min
Orbital period
105.39 mins
BSTAR
0.00017313
Loading maneuver chart data...
Computing Atmospheric mass density...
Loading historical data...
Loading historical data...
Loading historical data...
Loading historical data...
Loading historical data...
Loading historical data...
Loading historical data...
Other satellites on launch #81 in the year 1973 (1973-10-30 UTC)

Documentation

Showing up to 5 results
|